This is the latest recevied weather packets stored in our database for station/object VU3IZK-13. If no packets are shown the sender has not sent any weather packets the latest 1 day(s).
| Time | Temp. | Humidity | Pressure | Rain* | Wind** | Luminosity | Snow |
|---|---|---|---|---|---|---|---|
| 1777967132 | 32.78° C | 45% | 0 hPa | 0 mm | 5.36 m/s, 201° | - | - |
| 1777966231 | 32.22° C | 50% | 0 hPa | 0 mm | 4.02 m/s, 14° | - | - |
| 1777965310 | 31.67° C | 50% | 0 hPa | 0 mm | 4.92 m/s, 245° | - | - |
| 1777964407 | 32.22° C | 51% | 0 hPa | 0 mm | 4.47 m/s, 232° | - | - |
| 1777963529 | 31.11° C | 52% | 0 hPa | 0 mm | 6.26 m/s, 201° | - | - |
| 1777962608 | 31.11° C | 52% | 0 hPa | 0 mm | 4.02 m/s, 271° | - | - |
| 1777961707 | 31.11° C | 52% | 0 hPa | 0 mm | 4.02 m/s, 31° | - | - |
| 1777959931 | 30.56° C | 56% | 0 hPa | 0 mm | 4.47 m/s, 210° | - | - |
| 1777959029 | 30° C | 59% | 0 hPa | 0 mm | 4.47 m/s, 218° | - | - |
| 1777958147 | 30° C | 63% | 0 hPa | 0 mm | 1.34 m/s, 74° | - | - |
| 1777957224 | 29.44° C | 63% | 0 hPa | 0 mm | 2.24 m/s, 270° | - | - |
| 1777956305 | 28.89° C | 68% | 0 hPa | 0 mm | 2.68 m/s, 61° | - | - |
| 1777955405 | 28.33° C | 67% | 0 hPa | 0.76 mm | 1.34 m/s, 159° | - | - |
| 1777954528 | 28.33° C | 70% | 0 hPa | 0.76 mm | 2.68 m/s, 3° | - | - |
| 1777953623 | 27.78° C | 71% | 0 hPa | 0.76 mm | 2.24 m/s, 56° | - | - |
| 1777952737 | 27.22° C | 72% | 0 hPa | 0.76 mm | 3.58 m/s, 309° | - | - |
| 1777951817 | 27.22° C | 74% | 0 hPa | 4.32 mm | 1.34 m/s, 49° | - | - |
| 1777950917 | 26.67° C | 77% | 0 hPa | 3.3 mm | 4.92 m/s, 176° | - | - |
| 1777950036 | 25.56° C | 77% | 0 hPa | 3.05 mm | 1.34 m/s, 19° | - | - |
| 1777949136 | 25° C | 81% | 0 hPa | 0 mm | 2.68 m/s, 228° | - | - |
* Rain latest hour (hover to see other rain measurements)
** Current wind speed in m/s (hover to see current wind gust speed)